RESURS O1 DEB, 23345

Orbit data source: Space-Track

RESURS O1 DEB, 23345 is space debris in SSO originally from a launch on Fri, 04 Nov 1994 UTC launched from the Tyuratam Missile And Space Complex (TTMTR). Debris objects in space refer to the collection of defunct objects orbiting the Earth. Examples of debris include non-operational satellites, rocket bodies, and fragments generated from explosions, collisions, or faulty payload assembly.

Loading next visibility...
Identifier
23345, 1994-074D
Orbit
SSO
Country
Flag of CISCIS
Related business
Manufacturer
Yuzhnoe
Mission
Spacecraft
Bus & Motor
SEP MOTOR COVER, Unknown motor
Mass
~0 kg wet, ~1 kg dry
Launch date (UTC)
1994-11-04 (32 years ago)
Launch vehicle
Unknown
Launch site
Tyuratam Missile And Space Complex (TTMTR)
Object type
Payload
Rocket body
Debris
Shape & HBR
Unknown shape, 0.2 m
Radar Cross Section
Medium (>0.1 m² and <1 m²)

Expand to show TLE details & history
Last TLE update: 11 hours ago

TLE from 11 hours ago
0 RESURS O1 DEB
1 23345U 94074D   26166.19404625  .00000737  00000-0  22917-3 0  9994
2 23345  97.8274 324.3293 0188519 182.2189 355.0728 14.33877537647460
Epoch: 2026-06-15T04:39Z
TLE epoch observation values (Epoch: 2026-06-15T04:39:25.596Z)
Latitude
2.76988°
Longitude
171.36772°
Altitude
647.012 km
Speed
7.605 km/s
True Right ascension
09h 38m 49s
True Declination
2° 45' 11"
Sunlit
Object was in daylight at epoch
Visualization orbit readout
Latitude
Unknown
Longitude
Unknown
Altitude
Unknown
Speed
Unknown
Apparent Right ascension
Unknown
Apparent Declination
Unknown
Sunlit
N/A
Visualization observer readout
Local Sidereal Time
01:45:15
Azimuth
Unknown
Elevation
Unknown
Doppler factor
Unknown
Orbital elements
Apogee altitude
910.764 km
Perigee altitude
641.03 km
Semi-major axis
7,154.034 km
Eccentricity
0.01885
Inclination
97.8274°
RAAN
324.3293°
Arg. of periapsis
182.2189°
True anomaly
354.8828°
Mean anomaly
355.0728°
Eccentric anomaly
354.97825°
Mean motion
3.58688 °/min
Orbital period
100.37 mins
BSTAR
0.00022917
Loading maneuver chart data...
Computing Atmospheric mass density...

Documentation

Showing up to 5 results
|